�v������,���O�C��(��),���O���x(��),�Ɠx(lx),��O�J�Z���T�[(1:�~�J),����(m/s)
2023-08-01 00:00:00,27.7,85.2,2,0.0,0
2023-08-01 00:10:00,27.7,85,2,0.0,1
2023-08-01 00:20:00,27.5,84.4,0,0.0,0
2023-08-01 00:30:00,27.7,84.3,2,0.0,1
2023-08-01 00:40:00,27.5,83.6,2,0.0,1
2023-08-01 00:50:00,27.6,83.8,0,0.0,1
2023-08-01 01:00:00,27.3,84.6,2,0.0,0
2023-08-01 01:10:00,27.3,84.9,2,0.0,1
2023-08-01 01:20:00,27.2,84.8,0,0.0,1
2023-08-01 01:30:00,27.6,85,2,0.0,1
2023-08-01 01:40:00,27.4,85.6,2,0.0,1
2023-08-01 01:50:00,27.5,85.4,0,0.0,1
2023-08-01 02:00:00,27.3,84.9,2,0.0,1
2023-08-01 02:10:00,27.6,84.7,2,0.0,1
2023-08-01 02:20:00,27.4,85.2,0,0.0,0.5
2023-08-01 02:30:00,27.4,85.2,0,0.0,1
2023-08-01 02:40:00,27.4,85.2,2,0.0,1
2023-08-01 02:50:00,27.4,85.7,0,0.0,1
2023-08-01 03:00:00,27.4,85.5,0,0.0,1
2023-08-01 03:10:00,27.6,85.6,0,0.0,1
2023-08-01 03:20:00,27.3,85.5,0,0.0,1
2023-08-01 03:30:00,27.6,85.3,2,0.0,1
2023-08-01 03:40:00,27.4,85.2,2,0.0,1
2023-08-01 03:50:00,27.6,85.2,0,0.0,0
2023-08-01 04:00:00,27.3,84.9,0,0.0,1
2023-08-01 04:10:00,27.3,85.4,0,0.0,1
2023-08-01 04:20:00,27.3,85.6,2,0.0,0
2023-08-01 04:30:00,27.1,85.7,2,0.0,0
2023-08-01 04:40:00,27.5,85.8,2,0.0,0
2023-08-01 04:50:00,27.2,85.9,2,0.0,1
2023-08-01 05:00:00,27.3,85.9,2,0.0,0.5
2023-08-01 05:10:00,27.3,86.1,10,0.0,0
2023-08-01 05:20:00,27.3,86.1,130,0.0,0
2023-08-01 05:30:00,27.5,85.9,499.84,0.0,0
2023-08-01 05:40:00,27.2,85.8,999.68,0.0,1
2023-08-01 05:50:00,27.6,85.7,999.68,0.0,0
2023-08-01 06:00:00,27.4,85.6,1999.36,0.0,1
2023-08-01 06:10:00,27.5,85.2,2997.76,0.0,0
2023-08-01 06:20:00,27.4,84.9,2997.76,0.0,0
2023-08-01 06:30:00,27.6,84.3,3998.72,0.0,1
2023-08-01 06:40:00,27.8,84.2,5995.52,0.0,1
2023-08-01 06:50:00,27.9,84.5,6999.04,0.0,1
2023-08-01 07:00:00,27.9,84.6,10997.8,0.0,0
2023-08-01 07:10:00,28,83.8,12994.6,0.0,1
2023-08-01 07:20:00,28,83.6,14991.4,0.0,1
2023-08-01 07:30:00,28.6,81.9,16998.4,0.0,1
2023-08-01 07:40:00,28.7,80.9,19998.7,0.0,1
2023-08-01 07:50:00,28.8,80.1,22999,0.0,1
2023-08-01 08:00:00,29,78.8,25989.1,0.0,1
2023-08-01 08:10:00,29.4,77.1,46981.1,0.0,1
2023-08-01 08:20:00,29.9,72.8,24985.6,0.0,1
2023-08-01 08:30:00,30.2,68.8,28999.7,0.0,1
2023-08-01 08:40:00,30.5,66.5,29982.7,0.0,2
2023-08-01 08:50:00,30.7,66.1,24985.6,0.0,2
2023-08-01 09:00:00,30.4,67.8,40489,0.0,1
2023-08-01 09:10:00,30.2,68.8,41492.5,0.0,2
2023-08-01 09:20:00,30.6,68,29982.7,0.0,2
2023-08-01 09:30:00,31,67.7,28999.7,0.0,2
2023-08-01 09:40:00,31,67,25989.1,0.0,1
2023-08-01 09:50:00,31.6,65.9,57999.4,0.0,1
2023-08-01 10:00:00,32.1,64.2,21995.5,0.0,1
2023-08-01 10:10:00,31.9,64.2,18995.2,0.0,2
2023-08-01 10:20:00,32,64.8,22999,0.0,2.5
2023-08-01 10:30:00,31.6,66.4,42967,0.0,1
2023-08-01 10:40:00,31.6,65.7,47964.2,0.0,3
2023-08-01 10:50:00,32.5,63,40980.5,0.0,3
2023-08-01 11:00:00,32.7,62,21995.5,0.0,2.5
2023-08-01 11:10:00,32.3,63.5,22487,0.0,2
2023-08-01 11:20:00,32,65.3,28999.7,0.0,3
2023-08-01 11:30:00,31.6,67.4,41984,0.0,3
2023-08-01 11:40:00,31.5,66.6,25989.1,0.0,2.5
2023-08-01 11:50:00,32.6,58.9,23982.1,0.0,2.5
2023-08-01 12:00:00,33.5,56.8,31989.8,0.0,2
2023-08-01 12:10:00,34.1,55.2,34488.3,0.0,2
2023-08-01 12:20:00,34.8,53.9,29982.7,0.0,3
2023-08-01 12:30:00,34.7,52.7,33484.8,0.0,3
2023-08-01 12:40:00,34.9,51.9,35491.8,0.0,2
2023-08-01 12:50:00,34.7,53.8,34979.8,0.0,3
2023-08-01 13:00:00,34.8,53.2,31989.8,0.0,3
2023-08-01 13:10:00,35.1,51.7,30986.2,0.0,1
2023-08-01 13:20:00,34.9,52.2,30986.2,0.0,3
2023-08-01 13:30:00,35.1,50.8,29982.7,0.0,1
2023-08-01 13:40:00,35.7,49.5,34979.8,0.0,3
2023-08-01 13:50:00,35.8,50,33996.8,0.0,3.5
2023-08-01 14:00:00,35.6,50.7,26992.6,0.0,4
2023-08-01 14:10:00,35.4,50.6,30986.2,0.0,3
2023-08-01 14:20:00,34.9,51.7,32993.3,0.0,3
2023-08-01 14:30:00,34.7,52.5,29982.7,0.0,2
2023-08-01 14:40:00,35.1,51,31989.8,0.0,4
2023-08-01 14:50:00,35.1,50.2,31989.8,0.0,3
2023-08-01 15:00:00,34.8,50.8,31989.8,0.0,3
2023-08-01 15:10:00,35.3,49.8,31989.8,0.0,2
2023-08-01 15:20:00,35.2,50,30986.2,0.0,2
2023-08-01 15:30:00,35,51.1,31989.8,0.0,3
2023-08-01 15:40:00,35.1,50.9,30986.2,0.0,2
2023-08-01 15:50:00,35.5,49.4,32993.3,0.0,1.5
2023-08-01 16:00:00,34.9,49.9,32993.3,0.0,2.5
2023-08-01 16:10:00,34.7,50,27996.2,0.0,2
2023-08-01 16:20:00,34.4,51.7,29982.7,0.0,4
2023-08-01 16:30:00,34.7,52.9,29982.7,0.0,2
2023-08-01 16:40:00,34.5,52.8,28999.7,0.0,4
2023-08-01 16:50:00,34.2,54.3,27996.2,0.0,2.5
2023-08-01 17:00:00,33.9,54.9,25989.1,0.0,2.5
2023-08-01 17:10:00,34,54.3,24985.6,0.0,2
2023-08-01 17:20:00,33.5,54.8,23982.1,0.0,4
2023-08-01 17:30:00,33.6,53.8,22999,0.0,4
2023-08-01 17:40:00,33.4,53.7,21995.5,0.0,2.5
2023-08-01 17:50:00,33,55.7,20992,0.0,4
2023-08-01 18:00:00,33.2,55.8,18995.2,0.0,2
2023-08-01 18:10:00,32.7,56.8,15994.9,0.0,3
2023-08-01 18:20:00,32.7,57.7,13998.1,0.0,2
2023-08-01 18:30:00,32.6,58.1,10997.8,0.0,3
2023-08-01 18:40:00,32.2,58.8,6999.04,0.0,2
2023-08-01 18:50:00,31.8,60.4,1999.36,0.0,2.5
2023-08-01 19:00:00,31.6,61.7,999.68,0.0,3
2023-08-01 19:10:00,31.1,62.1,999.68,0.0,3
2023-08-01 19:20:00,31.2,63.2,285.92,0.0,1
2023-08-01 19:30:00,30.7,64.3,74,0.0,2
2023-08-01 19:40:00,30.6,65.8,8,0.0,3
2023-08-01 19:50:00,30.7,67.1,2,0.0,2
2023-08-01 20:00:00,30.5,68.3,2,0.0,2
2023-08-01 20:10:00,30.2,69.4,2,0.0,2
2023-08-01 20:20:00,30,70.1,2,0.0,1
2023-08-01 20:30:00,29.9,71,2,0.0,1
2023-08-01 20:40:00,29.9,71.5,2,0.0,1
2023-08-01 20:50:00,29.8,72.1,2,0.0,1
2023-08-01 21:00:00,29.8,72.6,2,0.0,2
2023-08-01 21:10:00,29.5,73,2,0.0,2
2023-08-01 21:20:00,29.7,73.6,2,0.0,2
2023-08-01 21:30:00,29.4,74.3,2,0.0,1
2023-08-01 21:40:00,29.3,74.9,2,0.0,1
2023-08-01 21:50:00,29.2,75.3,2,0.0,2
2023-08-01 22:00:00,29.2,75.7,2,0.0,1
2023-08-01 22:10:00,29,75.9,2,0.0,2
2023-08-01 22:20:00,29,76.7,0,0.0,1
2023-08-01 22:30:00,28.9,77.3,2,0.0,1
2023-08-01 22:40:00,28.7,78.5,2,0.0,1.5
2023-08-01 22:50:00,29,78.3,2,0.0,1
2023-08-01 23:00:00,28.9,78.1,2,0.0,1
2023-08-01 23:10:00,28.8,78,2,0.0,1
2023-08-01 23:20:00,28.9,78.2,2,0.0,1
2023-08-01 23:30:00,29.1,78.3,2,0.0,1
2023-08-01 23:40:00,28.7,78.6,2,0.0,1
2023-08-01 23:50:00,28.9,79.6,2,0.0,1
2023-08-02 00:00:00,28.8,80.4,2,0.0,2
2023-08-02 00:10:00,28.8,80.6,2,0.0,2
2023-08-02 00:20:00,28.8,80.2,2,0.0,1
2023-08-02 00:30:00,28.7,80.2,2,0.0,1
2023-08-02 00:40:00,28.7,80.3,2,0.0,0
2023-08-02 00:50:00,28.7,80.5,2,0.0,0
2023-08-02 01:00:00,28.7,80.6,2,0.0,1
2023-08-02 01:10:00,28.5,80.8,2,0.0,0
2023-08-02 01:20:00,28.7,81.2,2,0.0,1
2023-08-02 01:30:00,28.4,81.6,2,0.0,1
2023-08-02 01:40:00,28.5,82.1,2,0.0,1
2023-08-02 01:50:00,28.4,82.5,2,0.0,1
2023-08-02 02:00:00,28.5,82.4,2,0.0,0
2023-08-02 02:10:00,28.4,83.3,2,0.0,1
2023-08-02 02:20:00,27.9,85,2,0.0,1
2023-08-02 02:30:00,28,85.5,2,0.0,1
2023-08-02 02:40:00,27.9,85.5,2,0.0,0.5
2023-08-02 02:50:00,27.8,85.3,2,0.0,0
2023-08-02 03:00:00,27.9,84.9,2,0.0,0
2023-08-02 03:10:00,28,84.7,2,0.0,0
2023-08-02 03:20:00,27.9,84.7,2,0.0,0
2023-08-02 03:30:00,28.1,84.7,2,0.0,1
2023-08-02 03:40:00,28,85.8,2,0.0,2
2023-08-02 03:50:00,27.8,87.3,2,0.0,1
2023-08-02 04:00:00,27.4,89,2,0.0,1
2023-08-02 04:10:00,27.4,89.8,2,0.0,1
2023-08-02 04:20:00,27.4,90.4,2,0.0,1
2023-08-02 04:30:00,27.3,91,2,0.0,1
2023-08-02 04:40:00,27.4,91.7,2,0.0,1
2023-08-02 04:50:00,27.4,92.5,2,0.0,1
2023-08-02 05:00:00,27.2,93.4,4,0.0,1
2023-08-02 05:10:00,27.2,93.2,38,0.0,1
2023-08-02 05:20:00,27.2,93.4,308,0.0,0
2023-08-02 05:30:00,27,93.3,499.84,0.0,1
2023-08-02 05:40:00,27.5,93,999.68,0.0,1
2023-08-02 05:50:00,27.3,92.9,2997.76,0.0,1
2023-08-02 06:00:00,27.4,92.5,4999.68,0.0,1
2023-08-02 06:10:00,28.1,89.7,8995.84,0.0,0.5
2023-08-02 06:20:00,28.4,86.9,8995.84,0.0,1
2023-08-02 06:30:00,28.5,85.8,7997.44,0.0,1
2023-08-02 06:40:00,28.5,85.6,6999.04,0.0,1
2023-08-02 06:50:00,28.3,87.3,4999.68,0.0,1
2023-08-02 07:00:00,28,90.7,8995.84,1.0,2
2023-08-02 07:10:00,28.1,92.1,11991,1.0,2
2023-08-02 07:20:00,27.9,91.5,11991,1.0,1.5
2023-08-02 07:30:00,27.9,90.6,6999.04,1.0,1
2023-08-02 07:40:00,28.3,91.4,13998.1,1.0,1
2023-08-02 07:50:00,28.3,91.6,22999,1.0,1
2023-08-02 08:00:00,28.8,88.1,25989.1,0.0,1
2023-08-02 08:10:00,29.1,85.5,25989.1,0.0,0
2023-08-02 08:20:00,29.3,84.6,19998.7,0.0,1
2023-08-02 08:30:00,29.4,81.3,14991.4,0.0,2
2023-08-02 08:40:00,29.4,81.4,17991.7,0.0,2
2023-08-02 08:50:00,29.5,80,21995.5,0.0,3
2023-08-02 09:00:00,30.3,78.4,25989.1,0.0,1
2023-08-02 09:10:00,30.9,74.4,84951,0.0,1
2023-08-02 09:20:00,31.8,69.6,45998.1,0.0,3.5
2023-08-02 09:30:00,32,68.4,67993.6,0.0,2
2023-08-02 09:40:00,32.3,66.6,67993.6,0.0,3.5
2023-08-02 09:50:00,32.8,63.4,60989.4,0.0,3
2023-08-02 10:00:00,32.9,63.3,50995.2,0.0,3.5
2023-08-02 10:10:00,32.5,64.3,45465.6,0.0,3
2023-08-02 10:20:00,32.5,65.6,17991.7,0.0,3
2023-08-02 10:30:00,32.4,65.8,46981.1,0.0,3
2023-08-02 10:40:00,32.4,65.3,19998.7,0.0,3
2023-08-02 10:50:00,30.7,75.3,12994.6,1.0,2
2023-08-02 11:00:00,29.4,83.1,19998.7,1.0,2
2023-08-02 11:10:00,30.1,79.7,36986.9,0.0,3
2023-08-02 11:20:00,29.9,78.8,28999.7,0.0,4
2023-08-02 11:30:00,30.4,75.1,28999.7,0.0,1
2023-08-02 11:40:00,31.5,71,49971.2,0.0,2
2023-08-02 11:50:00,32.4,68.3,27996.2,0.0,3
2023-08-02 12:00:00,33.1,65.8,34488.3,0.0,2
2023-08-02 12:10:00,33,65.4,37990.4,0.0,2
2023-08-02 12:20:00,32.7,65.9,16998.4,0.0,3
2023-08-02 12:30:00,33.3,63.4,31989.8,0.0,4
2023-08-02 12:40:00,33.7,59.8,43499.5,0.0,2
2023-08-02 12:50:00,33.9,59,31989.8,0.0,6
2023-08-02 13:00:00,33.6,58.5,21483.5,0.0,4
2023-08-02 13:10:00,33.3,60.6,28999.7,0.0,3.5
2023-08-02 13:20:00,33.6,59.2,34979.8,0.0,2
2023-08-02 13:30:00,33.3,59.5,30986.2,0.0,3
2023-08-02 13:40:00,33.8,57.9,30494.7,0.0,3
2023-08-02 13:50:00,34.3,56.4,28487.7,0.0,3
2023-08-02 14:00:00,34.6,56.1,30986.2,0.0,2
2023-08-02 14:10:00,35.3,55,29491.2,0.0,3
2023-08-02 14:20:00,34.2,57,22999,0.0,5
2023-08-02 14:30:00,34.5,56.5,29982.7,0.0,3
2023-08-02 14:40:00,34.2,57,28999.7,0.0,4
2023-08-02 14:50:00,34.3,56.9,28999.7,0.0,4
2023-08-02 15:00:00,34,57.7,24985.6,0.0,3.5
2023-08-02 15:10:00,34,58.4,28999.7,0.0,3.5
2023-08-02 15:20:00,34.6,56.1,29982.7,0.0,2
2023-08-02 15:30:00,34.7,56,24985.6,0.0,3
2023-08-02 15:40:00,34.4,54.4,30986.2,0.0,3.5
2023-08-02 15:50:00,34.1,55.1,34979.8,0.0,2
2023-08-02 16:00:00,34.4,55,34979.8,0.0,2
2023-08-02 16:10:00,34.4,55.2,33996.8,0.0,4
2023-08-02 16:20:00,34.4,55.9,32993.3,0.0,3
2023-08-02 16:30:00,33.7,56.9,29982.7,0.0,4
2023-08-02 16:40:00,33.4,59.2,26992.6,0.0,4
2023-08-02 16:50:00,33.1,62.4,26992.6,0.0,4.5
2023-08-02 17:00:00,33,64.9,28999.7,0.0,3
2023-08-02 17:10:00,32.8,63.5,27996.2,0.0,3
2023-08-02 17:20:00,32.5,64,28999.7,0.0,3
2023-08-02 17:30:00,32.5,64.2,27996.2,0.0,4
2023-08-02 17:40:00,32.5,64.5,25989.1,0.0,3
2023-08-02 17:50:00,32.5,64.7,24985.6,0.0,3
2023-08-02 18:00:00,32.3,63.3,21483.5,0.0,2
2023-08-02 18:10:00,32.1,65,7997.44,0.0,3
2023-08-02 18:20:00,32,64.8,16496.6,0.0,3.5
2023-08-02 18:30:00,31.5,65.9,15994.9,0.0,4
2023-08-02 18:40:00,31,67.9,3998.72,0.0,2.5
2023-08-02 18:50:00,30.8,69.6,2997.76,0.0,3
2023-08-02 19:00:00,30.4,70.6,1999.36,0.0,2
2023-08-02 19:10:00,30.4,71.8,999.68,0.0,1
2023-08-02 19:20:00,30.1,72.6,245.92,0.0,1.5
2023-08-02 19:30:00,30.1,73.2,48,0.0,1
2023-08-02 19:40:00,30,73.4,8,0.0,2
2023-08-02 19:50:00,29.9,72.9,2,0.0,2
2023-08-02 20:00:00,29.9,73.2,2,0.0,2
2023-08-02 20:10:00,29.8,74.4,2,0.0,2
2023-08-02 20:20:00,29.5,75.5,2,0.0,2
2023-08-02 20:30:00,29.5,76.3,0,0.0,2
2023-08-02 20:40:00,29.2,77.1,0,0.0,1
2023-08-02 20:50:00,29.2,77.6,2,0.0,1
2023-08-02 21:00:00,28.9,78,2,0.0,1
2023-08-02 21:10:00,29.1,78.6,2,0.0,2
2023-08-02 21:20:00,28.7,79.4,2,0.0,2
2023-08-02 21:30:00,28.9,79.7,2,0.0,2
2023-08-02 21:40:00,29,80,0,0.0,1.5
2023-08-02 21:50:00,28.7,80.3,2,0.0,2
2023-08-02 22:00:00,28.8,80.6,2,0.0,1
2023-08-02 22:10:00,28.8,81,2,0.0,2
2023-08-02 22:20:00,28.7,81.3,0,0.0,1
2023-08-02 22:30:00,28.5,81.6,2,0.0,1
2023-08-02 22:40:00,28.3,81.9,0,0.0,1
2023-08-02 22:50:00,28.4,82.3,2,0.0,1
2023-08-02 23:00:00,28.6,82.3,0,0.0,2
2023-08-02 23:10:00,28.6,82.3,2,0.0,2
2023-08-02 23:20:00,28.1,82.9,2,0.0,2
2023-08-02 23:30:00,28.1,83.3,2,0.0,3
2023-08-02 23:40:00,28.2,83.3,2,0.0,1
2023-08-02 23:50:00,28.3,82.9,2,0.0,3
2023-08-03 00:00:00,28.3,83,0,0.0,2
2023-08-03 00:10:00,28.4,83.7,2,0.0,1
2023-08-03 00:20:00,28.2,84.7,2,0.0,2
2023-08-03 00:30:00,28.4,84.8,0,0.0,1
2023-08-03 00:40:00,27.9,85.7,2,0.0,1.5
2023-08-03 00:50:00,27.9,88.1,2,0.0,2
2023-08-03 01:00:00,27.7,89,2,0.0,1
2023-08-03 01:10:00,27.3,89.5,2,0.0,1
2023-08-03 01:20:00,27.4,89.3,2,0.0,2
2023-08-03 01:30:00,27.3,89.1,2,0.0,1
2023-08-03 01:40:00,27.2,88.5,0,0.0,2
2023-08-03 01:50:00,27.4,87.6,2,0.0,1
2023-08-03 02:00:00,27.4,87,2,0.0,1
2023-08-03 02:10:00,27.6,86.5,0,0.0,1
2023-08-03 02:20:00,27.5,86,2,0.0,1
2023-08-03 02:30:00,27.8,85.6,2,0.0,1
2023-08-03 02:40:00,27.7,85.4,2,0.0,0
2023-08-03 02:50:00,27.9,85.7,2,0.0,1
2023-08-03 03:00:00,28,85.2,2,0.0,1
2023-08-03 03:10:00,27.9,85.1,2,0.0,0
2023-08-03 03:20:00,27.8,85.3,0,0.0,1
2023-08-03 03:30:00,27.7,85.4,2,0.0,1
2023-08-03 03:40:00,27.9,85.8,2,0.0,1
2023-08-03 03:50:00,28.1,85.4,0,0.0,0.5
2023-08-03 04:00:00,27.9,85.9,2,0.0,0
2023-08-03 04:10:00,27.8,86.6,2,0.0,1
2023-08-03 04:20:00,27.4,87.4,2,0.0,1
2023-08-03 04:30:00,27.6,87.5,2,0.0,0
2023-08-03 04:40:00,27.6,88.1,2,0.0,1
2023-08-03 04:50:00,27.6,88.2,2,0.0,1
2023-08-03 05:00:00,27.6,87.9,4,0.0,1
2023-08-03 05:10:00,27.5,88.3,24,0.0,2
2023-08-03 05:20:00,27.3,89.5,277.92,0.0,1
2023-08-03 05:30:00,27.2,90,499.84,0.0,1
2023-08-03 05:40:00,27.4,90.1,1999.36,0.0,1
2023-08-03 05:50:00,27.3,89.9,2997.76,0.0,0
2023-08-03 06:00:00,27.3,89.2,3998.72,0.0,0
2023-08-03 06:10:00,27.8,87,5498.88,0.0,1
2023-08-03 06:20:00,27.9,87.2,6999.04,0.0,1
2023-08-03 06:30:00,28.3,86,9999.36,0.0,0
2023-08-03 06:40:00,28.4,84.5,10997.8,0.0,1
2023-08-03 06:50:00,28.6,83.4,7997.44,0.0,1
2023-08-03 07:00:00,28.5,83,13998.1,0.0,1
2023-08-03 07:10:00,28.9,82,12994.6,0.0,1
2023-08-03 07:20:00,29.1,81.4,14991.4,0.0,0
2023-08-03 07:30:00,29.4,79.6,24985.6,0.0,1
2023-08-03 07:40:00,29,79.7,18493.4,0.0,2
2023-08-03 07:50:00,29.2,78.9,78970.9,0.0,2
2023-08-03 08:00:00,29.5,77,75489.3,0.0,1
2023-08-03 08:10:00,30.1,75.3,82985,0.0,2
2023-08-03 08:20:00,30.8,74.2,82985,0.0,1
2023-08-03 08:30:00,30.7,72.9,82985,0.0,1
2023-08-03 08:40:00,31.3,71.2,29491.2,0.0,1
2023-08-03 08:50:00,31.1,72.4,67461.1,0.0,3
2023-08-03 09:00:00,31.3,71.7,15994.9,0.0,3
2023-08-03 09:10:00,31,72.5,21995.5,0.0,1
2023-08-03 09:20:00,31.2,72.4,16998.4,0.0,2
2023-08-03 09:30:00,31.1,72.8,20992,0.0,1.5
2023-08-03 09:40:00,31.2,73.1,22999,0.0,2
2023-08-03 09:50:00,31.4,72,18995.2,0.0,1.5
2023-08-03 10:00:00,31.9,70.4,40489,0.0,1.5
2023-08-03 10:10:00,32.1,68,43499.5,0.0,2
2023-08-03 10:20:00,33,63.7,42967,0.0,2
2023-08-03 10:30:00,33.5,62.1,35983.4,0.0,3
2023-08-03 10:40:00,33.8,60.9,38993.9,0.0,2
2023-08-03 10:50:00,33.8,59.8,26992.6,0.0,2
2023-08-03 11:00:00,34.2,59.3,42967,0.0,2
2023-08-03 11:10:00,34.7,58.4,26480.6,0.0,3.5
2023-08-03 11:20:00,34.2,59.7,25989.1,0.0,3
2023-08-03 11:30:00,33.1,63.9,40489,0.0,4
2023-08-03 11:40:00,33.5,62.2,27996.2,0.0,1
2023-08-03 11:50:00,33.7,60.8,35983.4,0.0,2
2023-08-03 12:00:00,33.6,61,28999.7,0.0,3
2023-08-03 12:10:00,32.5,66.3,30986.2,0.0,2
2023-08-03 12:20:00,33.3,63.9,34979.8,0.0,2.5
2023-08-03 12:30:00,32.9,66.9,22999,0.0,3
2023-08-03 12:40:00,32.4,67.4,23982.1,0.0,2
2023-08-03 12:50:00,32.1,69,25989.1,0.0,3
2023-08-03 13:00:00,33.6,63.9,29982.7,0.0,2.5
2023-08-03 13:10:00,34.5,61.4,32481.3,0.0,2
2023-08-03 13:20:00,34.6,58.1,33996.8,0.0,3
2023-08-03 13:30:00,34.2,60.3,30986.2,0.0,2
2023-08-03 13:40:00,33.8,60.5,14991.4,0.0,3
2023-08-03 13:50:00,33.3,62.7,19998.7,0.0,4
2023-08-03 14:00:00,32.9,64,27996.2,0.0,2
2023-08-03 14:10:00,33.7,62.9,33996.8,0.0,5.5
2023-08-03 14:20:00,33.8,62.2,20992,0.0,2
2023-08-03 14:30:00,33.6,60.4,10997.8,0.0,3
2023-08-03 14:40:00,33.5,62.3,14991.4,0.0,3
2023-08-03 14:50:00,32.3,69.3,17489.9,0.0,3
2023-08-03 15:00:00,30.1,75.1,28999.7,1.0,3
2023-08-03 15:10:00,30.5,74,27996.2,0.0,3
2023-08-03 15:20:00,30.7,73.9,23982.1,0.0,4.5
2023-08-03 15:30:00,31.4,70.6,24985.6,0.0,3
2023-08-03 15:40:00,31.9,70.4,23490.6,0.0,2
2023-08-03 15:50:00,32.3,65.6,32993.3,0.0,3.5
2023-08-03 16:00:00,32.2,66.3,31989.8,0.0,4
2023-08-03 16:10:00,32.6,66.5,33996.8,0.0,5
2023-08-03 16:20:00,32.9,64.2,42475.5,0.0,2
2023-08-03 16:30:00,32.8,65.1,40489,0.0,3
2023-08-03 16:40:00,32.1,67.6,15994.9,0.0,4
2023-08-03 16:50:00,31.1,72,16998.4,0.0,4
2023-08-03 17:00:00,31.6,69.8,38993.9,0.0,3
2023-08-03 17:10:00,30.9,71.3,35983.4,0.0,5
2023-08-03 17:20:00,31,70.3,31989.8,0.0,4
2023-08-03 17:30:00,31,70.1,27996.2,0.0,3.5
2023-08-03 17:40:00,30.6,71.3,6999.04,0.0,3
2023-08-03 17:50:00,30.5,73.6,4999.68,0.0,3
2023-08-03 18:00:00,30.4,73.4,4999.68,0.0,1
2023-08-03 18:10:00,30.5,73.1,3998.72,0.0,1
2023-08-03 18:20:00,30.2,74.6,2997.76,0.0,2
2023-08-03 18:30:00,30.1,75.4,2997.76,0.0,2
2023-08-03 18:40:00,29.8,75.9,1999.36,0.0,4
2023-08-03 18:50:00,29.7,75.8,1999.36,0.0,2
2023-08-03 19:00:00,29.5,76.3,999.68,0.0,1
2023-08-03 19:10:00,29.3,76.2,999.68,0.0,2.5
2023-08-03 19:20:00,29.3,75.3,437.76,0.0,2
2023-08-03 19:30:00,29.3,75.4,68,0.0,3
2023-08-03 19:40:00,29.2,75.9,8,0.0,1
2023-08-03 19:50:00,29,75.7,2,0.0,2
2023-08-03 20:00:00,29,75.7,2,0.0,1
2023-08-03 20:10:00,29,76.5,2,0.0,1
2023-08-03 20:20:00,28.8,77.2,2,0.0,1
2023-08-03 20:30:00,28.9,77.6,2,0.0,2
2023-08-03 20:40:00,28.9,78.3,0,0.0,1
2023-08-03 20:50:00,28.7,79.7,0,0.0,1
2023-08-03 21:00:00,28.1,81.9,0,0.0,2
2023-08-03 21:10:00,28.4,81.8,2,0.0,1
2023-08-03 21:20:00,28.3,82.1,0,0.0,1
2023-08-03 21:30:00,28.3,82.1,2,0.0,1
2023-08-03 21:40:00,28.3,82.1,2,0.0,1
2023-08-03 21:50:00,28.4,81.9,2,0.0,1
2023-08-03 22:00:00,28.4,81.8,0,0.0,2
2023-08-03 22:10:00,28.3,82.1,0,0.0,1
2023-08-03 22:20:00,28.3,81.8,2,0.0,1.5
2023-08-03 22:30:00,28.2,81.7,2,0.0,1.5
2023-08-03 22:40:00,28.1,81.7,2,0.0,1
2023-08-03 22:50:00,28.2,82,2,0.0,1
2023-08-03 23:00:00,28.2,82.6,0,0.0,1.5
2023-08-03 23:10:00,28,83,2,0.0,1
2023-08-03 23:20:00,28.1,82.8,2,0.0,1
2023-08-03 23:30:00,28.2,82.7,0,0.0,1
2023-08-03 23:40:00,27.9,82.2,0,0.0,1
2023-08-03 23:50:00,28.1,81.8,2,0.0,1
2023-08-04 00:00:00,28,81.9,2,0.0,2
2023-08-04 00:10:00,28.2,82.7,2,0.0,2
2023-08-04 00:20:00,27.9,83,0,0.0,1
2023-08-04 00:30:00,27.8,83.3,2,0.0,1
2023-08-04 00:40:00,28,83.4,0,0.0,1
2023-08-04 00:50:00,27.7,83.9,2,0.0,1
2023-08-04 01:00:00,27.6,84.9,0,0.0,1
2023-08-04 01:10:00,27.6,85.7,2,0.0,1
2023-08-04 01:20:00,27.7,86.2,2,0.0,1
2023-08-04 01:30:00,27.4,86.7,2,0.0,1
2023-08-04 01:40:00,27.2,86.9,2,0.0,0
2023-08-04 01:50:00,27.3,87,2,0.0,1
2023-08-04 02:00:00,27.3,87.1,2,0.0,1
2023-08-04 02:10:00,27.2,87.7,2,0.0,1
2023-08-04 02:20:00,27.2,87.6,2,0.0,0
2023-08-04 02:30:00,27.4,87.1,0,0.0,1
2023-08-04 02:40:00,27.4,86.9,2,0.0,1
2023-08-04 02:50:00,27.3,86.7,2,0.0,1
2023-08-04 03:00:00,27,86.5,0,0.0,0
2023-08-04 03:10:00,27.3,86.3,2,0.0,1
2023-08-04 03:20:00,27.4,86.3,2,0.0,0
2023-08-04 03:30:00,27.4,86.9,2,0.0,1
2023-08-04 03:40:00,27.2,87.2,0,0.0,1
2023-08-04 03:50:00,27.2,87.5,2,0.0,0
2023-08-04 04:00:00,27.2,87.6,2,0.0,0
2023-08-04 04:10:00,27,88,2,0.0,0
2023-08-04 04:20:00,27,88.2,0,0.0,1
2023-08-04 04:30:00,26.9,88.8,2,0.0,1
2023-08-04 04:40:00,26.9,89,2,0.0,1
2023-08-04 04:50:00,26.6,89.7,2,0.0,1
2023-08-04 05:00:00,26.6,90,6,0.0,1
2023-08-04 05:10:00,26.6,90.2,44,0.0,1
2023-08-04 05:20:00,26.4,90.7,245.92,0.0,0.5
2023-08-04 05:30:00,26.4,91.3,999.68,0.0,1
2023-08-04 05:40:00,26.3,91.3,999.68,0.0,1
2023-08-04 05:50:00,26.3,91.1,1999.36,0.0,2
2023-08-04 06:00:00,26.8,89.3,3998.72,0.0,1
2023-08-04 06:10:00,27.4,85.6,4999.68,0.0,1
2023-08-04 06:20:00,27.5,84.4,6999.04,0.0,1
2023-08-04 06:30:00,27,86,5995.52,0.0,1
2023-08-04 06:40:00,27,87,8995.84,0.0,1
2023-08-04 06:50:00,26.8,87.6,8995.84,0.0,1
2023-08-04 07:00:00,26.9,88.1,9999.36,0.0,0.5
2023-08-04 07:10:00,27.4,87.1,16998.4,0.0,1
2023-08-04 07:20:00,27.7,85.4,9999.36,0.0,1
2023-08-04 07:30:00,28.1,84.1,17489.9,0.0,1
2023-08-04 07:40:00,28.3,83.9,82985,0.0,1
2023-08-04 07:50:00,28.5,82.9,14991.4,0.0,1
2023-08-04 08:00:00,28.9,79.5,85934.1,0.0,1
2023-08-04 08:10:00,29.3,78.2,13998.1,0.0,1
2023-08-04 08:20:00,29.8,76.8,81961,0.0,1
2023-08-04 08:30:00,29.9,75.5,79994.9,0.0,1
2023-08-04 08:40:00,30.5,72.8,77987.8,0.0,3
2023-08-04 08:50:00,30.9,70.9,49479.7,0.0,2
2023-08-04 09:00:00,30.5,71.6,15493.1,0.0,1
2023-08-04 09:10:00,30.7,72.2,59965.4,0.0,1
2023-08-04 09:20:00,31,70.3,49971.2,0.0,1
2023-08-04 09:30:00,31.5,68.9,19998.7,0.0,1
2023-08-04 09:40:00,31.6,68.2,19998.7,0.0,1
2023-08-04 09:50:00,30.8,71,11991,0.0,3
2023-08-04 10:00:00,30.6,71.4,15994.9,0.0,1
2023-08-04 10:10:00,30.8,70.8,18995.2,0.0,2
2023-08-04 10:20:00,31.1,69.6,20992,0.0,1
2023-08-04 10:30:00,31.1,70.3,14991.4,0.0,1
2023-08-04 10:40:00,30.7,73.3,16998.4,0.0,1
2023-08-04 10:50:00,30.3,77.7,27996.2,0.0,2
2023-08-04 11:00:00,30.8,75.8,34979.8,0.0,1
2023-08-04 11:10:00,31.3,72.5,22999,0.0,1
2023-08-04 11:20:00,31.3,72,42475.5,0.0,1
2023-08-04 11:30:00,31.9,69,26992.6,0.0,1
2023-08-04 11:40:00,32.5,66.4,30986.2,0.0,3
2023-08-04 11:50:00,31.9,67.6,21995.5,0.0,2
2023-08-04 12:00:00,32.1,67.7,28999.7,0.0,1
2023-08-04 12:10:00,32.7,65.2,30986.2,0.0,1.5
2023-08-04 12:20:00,32.6,66.5,25989.1,0.0,1.5
2023-08-04 12:30:00,32.8,65.1,15994.9,0.0,2
2023-08-04 12:40:00,32.7,64.9,25989.1,0.0,1
2023-08-04 12:50:00,33.1,64,25989.1,0.0,1
2023-08-04 13:00:00,33,62.9,28999.7,0.0,4
2023-08-04 13:10:00,33.1,62.2,44974.1,0.0,3
2023-08-04 13:20:00,32.6,65.4,17991.7,0.0,2
2023-08-04 13:30:00,32.4,65.2,25989.1,0.0,4
2023-08-04 13:40:00,33.1,62.7,42967,0.0,2.5
2023-08-04 13:50:00,34,60.5,46489.6,0.0,3
2023-08-04 14:00:00,34.6,57.9,28999.7,0.0,1.5
2023-08-04 14:10:00,34.4,57.2,35983.4,0.0,2.5
2023-08-04 14:20:00,34.3,58.1,41984,0.0,4
2023-08-04 14:30:00,34.4,57.8,15994.9,0.0,2
2023-08-04 14:40:00,34.6,57.8,34979.8,0.0,1.5
2023-08-04 14:50:00,34.1,59.6,16998.4,0.0,2
2023-08-04 15:00:00,32.9,64.3,18995.2,0.0,2
2023-08-04 15:10:00,32.9,62.9,25989.1,0.0,2
2023-08-04 15:20:00,33.2,62.1,42967,0.0,1.5
2023-08-04 15:30:00,33.8,58.3,25497.6,0.0,4
2023-08-04 15:40:00,33.1,59.7,24985.6,0.0,2
2023-08-04 15:50:00,32.5,62.3,18995.2,0.0,3
2023-08-04 16:00:00,32.3,64.9,19998.7,0.0,4
2023-08-04 16:10:00,32.9,63.9,34979.8,0.0,1
2023-08-04 16:20:00,33.6,61.5,37990.4,0.0,2
2023-08-04 16:30:00,33.2,63.3,36986.9,0.0,3.5
2023-08-04 16:40:00,32.4,65.9,19998.7,0.0,3.5
2023-08-04 16:50:00,32.5,64.2,20490.2,0.0,2
2023-08-04 17:00:00,31.9,66.4,14499.8,0.0,3.5
2023-08-04 17:10:00,32.2,65.2,17991.7,0.0,2
2023-08-04 17:20:00,32.1,66.8,30494.7,0.0,3
2023-08-04 17:30:00,31.9,66.9,11991,0.0,2
2023-08-04 17:40:00,31.7,67.8,10997.8,0.0,3
2023-08-04 17:50:00,31.3,67.3,6999.04,0.0,3
2023-08-04 18:00:00,30.8,69.6,8995.84,0.0,3
2023-08-04 18:10:00,31.1,69.1,20992,0.0,1
2023-08-04 18:20:00,31.4,69.3,19998.7,0.0,2.5
2023-08-04 18:30:00,31,69.8,16998.4,0.0,2
2023-08-04 18:40:00,30.9,70.7,11991,0.0,2
2023-08-04 18:50:00,30.6,72.3,4999.68,0.0,2
2023-08-04 19:00:00,29.9,74.1,1999.36,0.0,2
2023-08-04 19:10:00,29.7,75.5,999.68,0.0,2
2023-08-04 19:20:00,29.3,76.3,499.84,0.0,2
2023-08-04 19:30:00,29.6,76.9,110,0.0,2
2023-08-04 19:40:00,29,77.6,14,0.0,2
2023-08-04 19:50:00,29.1,78.4,2,0.0,1
2023-08-04 20:00:00,29.2,78.5,2,0.0,2
2023-08-04 20:10:00,28.9,78.7,0,0.0,1
2023-08-04 20:20:00,28.8,79.3,2,0.0,1
2023-08-04 20:30:00,28.7,79.7,2,0.0,1.5
2023-08-04 20:40:00,28.7,80.2,0,0.0,3
2023-08-04 20:50:00,28.5,80.5,0,0.0,3
2023-08-04 21:00:00,28.7,80.9,0,0.0,1
2023-08-04 21:10:00,28.4,80.8,0,0.0,2
2023-08-04 21:20:00,28.6,80.8,0,0.0,1
2023-08-04 21:30:00,28.5,81.3,0,0.0,1
2023-08-04 21:40:00,28.7,81.3,2,0.0,1
2023-08-04 21:50:00,28.4,81.3,2,0.0,0
2023-08-04 22:00:00,28.4,81.2,2,0.0,2
2023-08-04 22:10:00,28.4,81.5,0,0.0,1